Дустабад

Узбекистан     40°51′27″N   68°55′46″E
темп.,
°C
ветер,
м/с
пор.,
м/с
влажн.,
%
обл.,
%
осадки,
мм/ч
давл.,
гПа
погр.,
м
3 марта, ср
ср323:00+9ссз3556100 0.0 1024157
02:00+9сз1261100 0.0 102478
05:00+7зсз2267100 0.0 1024108
08:00+7ю116989 0.0 102467
11:00+11ююз335644 0.0 1022727
14:00+14юз22490 0.0 10201187
17:00+15зсз11440 0.0 10201146
20:00+12ссз115793 0.0 102223
4 марта, чт
чт423:00+10ююв366666 0.0 1022172
02:00+9юв23700 0.0 102157
05:00+8ю12800 0.0 102044
08:00+8ю127625 0.1 102086
11:00+14юв354662 0.1 1018444
14:00+17зюз3337100 0.0 10161322
17:00+16с234595 0.0 1017477
20:00+12юв3659100 0.1 1019135
5 марта, пт
пт523:00+9ссз698290 1.9 1023574
02:00+6ссз5782100 2.6 1026728
05:00+5сз3484100 5.1 1029501
08:00+5ссз347990 0.1 1030336
11:00+8с226270 0.1 1029865
14:00+11ссв23420 0.0 10261182
17:00+12ссв33360 0.0 1024960
20:00+9с23470 0.0 102562
6 марта, сб
сб623:00+8ссв235417 0.0 102249
02:00+7ссв2358100 0.0 101832
05:00+7ссв3450100 0.0 101562
08:00+8ссв2346100 0.0 101279
11:00+12зсз4532100 0.0 1011349
14:00+13з5635100 0.0 1012738
17:00+12сз4641100 0.0 1012535
20:00+10зсз2353100 0.0 1013105
7 марта, вс
вс723:00+9зсз2459100 0.0 1015217
02:00+7св0177100 1.3 1016186
05:00+7зюз0085100 2.4 1017136
08:00+8вюв2279100 0.3 1019326
11:00+9с1167100 0.4 1019822
14:00+11с2357100 0.1 10181180
17:00+11ссв2155100 0.1 10181007
20:00+9с226588 0.0 101847